Location: Mississauga
(43.5802°N, 79.6166°W)
Time: 11:32:38
(UTC-04:00)

Cosmos 1437 Rocket - Visible Passes

Search period start: 17 September 2014 00:00
Search period end: 27 September 2014 00:00
Orbit: 524 x 569 km, 81.2° (Epoch: 17 September)

Date Brightness Start Highest point End Pass type
(mag) Time Alt. Az. Time Alt. Az. Time Alt. Az.
19 Sep 6.5 05:44:06 10° E 05:44:54 11° E 05:45:42 10° ENE visible
20 Sep 6.3 05:38:10 10° ESE 05:39:29 12° E 05:40:48 10° ENE visible
21 Sep 6.1 05:32:24 10° ESE 05:34:04 12° E 05:35:44 10° ENE visible
22 Sep 6.0 05:26:42 10° ESE 05:28:38 14° E 05:30:35 10° ENE visible
23 Sep 5.9 05:21:02 10° ESE 05:23:13 15° E 05:25:23 10° NE visible
24 Sep 5.8 05:15:24 10° SE 05:17:47 16° E 05:20:09 10° NE visible
25 Sep 5.7 05:09:47 10° SE 05:12:20 17° E 05:14:54 10° NE visible
26 Sep 5.5 05:04:12 10° SE 05:06:54 18° E 05:09:37 10° NE visible
26 Sep 3.5 06:39:42 10° SW 06:43:10 31° WNW 06:46:39 10° N visible
